EW0680 Weather Reports


time (UTC)temp
C
wind
direction
speed
KPH
gust
KPH
rain 1hr
cm
rain 24hr
cm
rain mn
cm
humidity
%
barometer
mb
20260507031513 8 344 0.0 0.0 0.00 1.17 0.79 82 1014.6
20260507030018 8 344 0.0 0.0 0.00 1.30 0.79 80 1014.6
20260507024522 8 344 0.0 0.0 0.00 1.30 0.79 79 1014.8
20260507023023 8 344 0.0 0.0 0.00 1.30 0.79 76 1014.8
20260507021523 8 344 0.0 0.0 0.00 1.30 0.79 76 1014.7
20260507020027 9 344 0.0 0.0 0.00 1.60 0.79 74 1014.7
20260507014532 9 344 0.0 0.0 0.00 1.60 0.79 73 1014.4
20260507013037 9 344 0.0 0.0 0.00 1.60 0.79 71 1014.2
20260507011534 9 344 0.0 0.0 0.00 1.60 0.79 71 1014.1
20260507010027 10 344 0.0 0.0 0.00 2.18 0.79 73 1014.0
20260507004525 10 344 0.0 0.0 0.00 2.18 0.79 71 1014.0
20260507003027 11 344 0.0 0.0 0.00 2.18 0.79 69 1013.9
20260507001542 11 344 0.0 0.0 0.00 2.18 0.79 64 1013.6
20260507000035 11 339 0.0 4.8 0.00 3.15 0.79 66 1013.4
20260506234537 11 337 3.2 6.4 0.00 3.15 0.79 66 1013.5
20260506233045 11 335 0.0 6.4 0.00 3.15 0.79 68 1013.6
20260506231547 11 334 3.2 8.0 0.00 3.15 0.79 68 1013.5
20260506230048 11 319 3.2 11.3 0.00 3.15 0.79 65 1013.5
20260506224553 12 331 0.0 6.4 0.00 3.23 0.79 65 1013.7
20260506223123 12 327 0.0 1.6 0.00 3.23 0.79 61 1013.8
20260506221509 12 320 0.0 9.7 0.00 3.23 0.79 62 1013.9
20260506220011 12 331 0.0 6.4 0.00 3.23 0.79 61 1013.7
20260506214511 12 344 0.0 4.8 0.00 3.23 0.79 61 1013.5
20260506213013 12 339 0.0 6.4 0.00 3.23 0.79 61 1013.5
20260506211515 12 354 0.0 6.4 0.00 3.23 0.79 62 1013.4
20260506210016 12 321 4.8 12.9 0.00 3.28 0.79 64 1013.4
20260506204517 12 347 0.0 11.3 0.00 3.28 0.79 65 1013.3
20260506203021 12 333 1.6 6.4 0.00 3.28 0.79 63 1013.4
20260506201521 12 339 0.0 8.0 0.00 3.28 0.79 63 1013.4
20260506200009 12 319 0.0 12.9 0.00 3.48 0.79 62 1013.2
20260506194512 12 345 0.0 1.6 0.00 3.48 0.79 66 1013.1
20260506193013 12 323 1.6 9.7 0.00 3.48 0.79 62 1013.0
20260506191518 12 329 0.0 6.4 0.00 3.48 0.79 62 1013.3
20260506190021 12 321 0.0 6.4 0.00 3.48 0.79 62 1013.3
20260506184524 11 337 1.6 6.4 0.00 3.48 0.79 64 1013.3
20260506183008 12 339 0.0 12.9 0.00 3.48 0.79 62 1013.3
20260506181516 12 348 0.0 4.8 0.00 3.48 0.79 66 1013.0
20260506180032 11 354 4.8 9.7 0.00 3.51 0.79 66 1013.2
20260506174530 11 329 1.6 6.4 0.00 3.51 0.79 67 1013.3
20260506173015 11 319 0.0 4.8 0.00 3.51 0.79 63 1013.5
20260506171506 11 350 3.2 14.5 0.00 3.51 0.79 65 1013.3
20260506170008 11 13 3.2 14.5 0.00 3.51 0.79 66 1013.1
20260506164513 11 346 0.0 1.6 0.00 3.51 0.79 71 1013.2
20260506163022 11 345 0.0 1.6 0.00 3.51 0.79 68 1013.1
20260506161536 11 322 0.0 8.0 0.00 3.51 0.79 67 1013.0
20260506160026 11 345 1.6 9.7 0.00 3.51 0.79 69 1013.5
20260506154530 11 327 0.0 4.8 0.00 3.51 0.79 70 1012.9
20260506153031 10 352 4.8 12.9 0.00 3.51 0.79 71 1012.9
20260506151534 10 347 1.6 16.1 0.00 3.51 0.79 73 1012.9
20260506150040 10 10 4.8 17.7 0.00 3.51 0.79 75 1012.5
20260506144540 10 328 0.0 12.9 0.00 3.51 0.79 76 1012.2
20260506143044 10 325 0.0 4.8 0.00 3.51 0.79 79 1012.0
20260506141548 9 355 0.0 6.4 0.00 3.51 0.79 80 1012.5
20260506140051 9 337 1.6 12.9 0.00 3.51 0.79 80 1012.1
20260506134616 8 338 0.0 8.0 0.00 3.51 0.79 82 1012.2
20260506133059 8 33 0.0 4.8 0.00 3.51 0.79 83 1012.0
20260506131612 7 344 0.0 6.4 0.00 3.51 0.79 87 1011.9
20260506131504 7 339 0.0 6.4 0.00 3.51 0.79 87 1011.9
20260506130005 7 336 0.0 9.7 0.00 3.51 0.79 87 1011.6
20260506124603 7 325 0.0 4.8 0.00 3.51 0.79 88 1011.8
20260506124508 7 337 0.0 4.8 0.00 3.51 0.79 88 1011.8
20260506123058 7 354 0.0 8.0 0.00 3.51 0.79 89 1011.3
20260506123006 7 356 0.0 8.0 0.00 3.51 0.79 89 1011.3
20260506121546 6 345 0.0 6.4 0.00 3.51 0.79 89 1011.3
20260506120042 6 356 0.0 6.4 0.00 3.51 0.79 90 1010.9
20260506114533 6 348 1.6 9.7 0.00 3.51 0.79 90 1010.3
20260506113029 6 345 0.0 3.2 0.00 3.51 0.79 90 1010.1
20260506111525 6 352 0.0 4.8 0.00 3.51 0.79 90 1009.9
20260506110031 6 342 0.0 8.0 0.00 3.53 0.79 90 1009.9
20260506104531 6 352 0.0 8.0 0.00 3.53 0.79 91 1009.6
20260506103034 6 343 0.0 8.0 0.00 3.53 0.79 90 1009.1
20260506101537 6 360 0.0 8.0 0.00 3.53 0.79 91 1009.2
20260506100040 6 352 1.6 9.7 0.00 3.66 0.79 90 1009.3
20260506094542 6 2 1.6 8.0 0.00 3.66 0.79 90 1008.8
20260506093019 6 360 1.6 12.9 0.00 3.66 0.79 90 1008.9
20260506091520 6 335 3.2 9.7 0.00 3.66 0.79 90 1008.3
20260506090024 6 345 3.2 9.7 0.03 4.17 0.79 90 1008.5
20260506084530 6 353 0.0 9.7 0.03 4.17 0.79 90 1008.6
20260506083037 6 298 0.0 9.7 0.05 4.17 0.79 90 1007.9
20260506081548 6 300 3.2 17.7 0.08 4.17 0.79 90 1007.6
20260506073033 6 341 0.0 9.7 0.03 4.14 0.71 89 1008.3
20260506071534 6 334 4.8 19.3 0.05 4.11 0.71 88 1008.0
20260506061543 7 354 8.0 22.5 0.18 4.06 0.66 92 1008.6
20260506044555 7 333 14.5 24.1 0.43 3.66 0.25 92 1008.4
20260506043057 7 344 0.0 9.7 0.43 3.48 0.08 92 1008.0
20260506041602 7 20 0.0 4.8 0.43 3.45 0.05 92 1007.2
20260506040049 7 290 0.0 12.9 0.38 3.40 0.00 92 1007.5
20260506034542 7 20 0.0 20.9 0.18 3.20 3.23 92 1007.9
20260506033045 8 338 6.4 19.3 0.05 3.05 3.05 92 1007.7